Terminal Aerodrome Forecast
Issued by NWS Dallas/Fort Worth, TX

Home | Current Version | Previous Version | Text Only | Print | Product List | Glossary On
Versions: 1 2 3 4 5 6 7 8 9 10 11 12 13 14 15 16 17 18 19 20 21 22 23 24 25 26 27 28
000
FTUS44 KFWD 272332
TAFACT
TAF
KACT 272332Z 2800/2824 12012KT P6SM BKN250
     FM280800 17010KT 4SM BR BKN009
     FM281600 18010KT P6SM BKN020
     FM282100 16010KT P6SM BKN050=

USA.gov is the U.S. government's official web portal to all federal, state and local government web resources and services.